Location: Tierz
(42.1336°N, 0.3549°W)
Time: 18:21:04
(UTC+00:00)

Cosmos 1726 Rocket - Pass Details

Date: 29 October 2020
Orbit: 603 x 629 km, 82.5° (Epoch: 03 December)

Event Time Altitude Azimuth Distance (km) Brightness Sun altitude
Rises 17:21:38 0° 180° (S) 2,853 7.2 -4.9°
Reaches altitude 10° 17:23:51 10° 177° (S) 1,958 6.3 -5.3°
Maximum altitude 17:28:08 68° 96° (E) 666 3.5 -6.1°
Drops below altitude 10° 17:32:31 10° 13° (NNE) 1,990 5.9 -6.9°
Sets 17:34:46 0° 11° (N) 2,904 6.8 -7.3°
